• In Lithuania
  • List of Countries
  • For 7 days
  • Water Temperature
  • Satellite Maps
  • Weather Map
  • Weather Widgets
  • user-avatar
    Login

    Hourly Weather Bukoba

    Today, 17 July, Tuesday

    Time Temperature Precipitation Wind Pressure Humidity
    00:00 +19°C° 0 mm 2 mps 664 mmHg 59%
    01:00 +19°C° 0 mm 3 mps 663 mmHg 59%
    02:00 +17°C° 0 mm 5 mps 664 mmHg 60%
    03:00 +17°C° 0 mm 5 mps 664 mmHg 60%
    04:00 +17°C° 0 mm 5 mps 664 mmHg 61%
    05:00 +17°C° 0 mm 6 mps 664 mmHg 61%
    06:00 +20°C° 0 mm 6 mps 665 mmHg 57%
    07:00 +21°C° 0 mm 6 mps 665 mmHg 52%
    08:00 +24°C° 0 mm 6 mps 666 mmHg 48%
    09:00 +26°C° 0 mm 6 mps 666 mmHg 44%
    10:00 +27°C° 0 mm 6 mps 666 mmHg 40%
    11:00 +29°C° 0 mm 6 mps 666 mmHg 35%
    12:00 +29°C° 0 mm 6 mps 665 mmHg 33%
    13:00 +30°C° 0 mm 5 mps 665 mmHg 31%
    14:00 +32°C° 0 mm 5 mps 665 mmHg 29%
    15:00 +30°C° 0 mm 4 mps 664 mmHg 31%
    16:00 +29°C° 0 mm 4 mps 664 mmHg 32%
    17:00 +28°C° 0 mm 3 mps 663 mmHg 33%
    18:00 +26°C° 0 mm 3 mps 663 mmHg 40%
    19:00 +24°C° 0 mm 2 mps 663 mmHg 47%
    20:00 +21°C° 0 mm 1 mps 663 mmHg 55%
    21:00 +21°C° 0 mm 1 mps 663 mmHg 57%
    22:00 +20°C° 0 mm 1 mps 664 mmHg 59%
    23:00 +20°C° 0 mm 1 mps 664 mmHg 61%

    Tomorrow, 18 July, Wednesday

    Time Temperature Precipitation Wind Pressure Humidity
    00:00 +20°C° 0 mm 1 mps 664 mmHg 61%
    01:00 +18°C° 0 mm 2 mps 663 mmHg 62%
    02:00 +18°C° 0 mm 2 mps 663 mmHg 62%
    03:00 +18°C° 0 mm 3 mps 663 mmHg 61%
    04:00 +18°C° 0 mm 4 mps 663 mmHg 60%
    05:00 +16°C° 0 mm 5 mps 663 mmHg 59%
    06:00 +19°C° 0 mm 6 mps 664 mmHg 52%
    07:00 +21°C° 0 mm 7 mps 664 mmHg 44%
    08:00 +23°C° 0 mm 8 mps 665 mmHg 37%
    09:00 +24°C° 0 mm 8 mps 665 mmHg 34%
    10:00 +27°C° 0 mm 7 mps 665 mmHg 31%
    11:00 +28°C° 0 mm 6 mps 665 mmHg 28%
    12:00 +29°C° 0 mm 6 mps 665 mmHg 27%
    13:00 +30°C° 0 mm 5 mps 664 mmHg 26%
    14:00 +32°C° 0 mm 5 mps 664 mmHg 24%
    15:00 +30°C° 0 mm 4 mps 663 mmHg 26%
    16:00 +30°C° 0 mm 4 mps 663 mmHg 27%
    17:00 +29°C° 0 mm 4 mps 663 mmHg 29%
    18:00 +26°C° 0 mm 3 mps 663 mmHg 36%
    19:00 +24°C° 0 mm 2 mps 663 mmHg 44%
    20:00 +21°C° 0 mm 2 mps 663 mmHg 51%
    21:00 +21°C° 0 mm 1 mps 663 mmHg 53%
    22:00 +21°C° 0 mm 1 mps 664 mmHg 55%
    23:00 +18°C° 0 mm 0 mps 664 mmHg 57%

    Day after tomorrow, 19 July, Thursday

    Time Temperature Precipitation Wind Pressure Humidity
    00:00 +20°C° 0 mm 1 mps 664 mmHg 57%
    01:00 +19°C° 0 mm 2 mps 663 mmHg 57%
    02:00 +18°C° 0 mm 3 mps 663 mmHg 57%
    03:00 +18°C° 0 mm 4 mps 663 mmHg 56%
    04:00 +17°C° 0 mm 5 mps 663 mmHg 56%
    05:00 +17°C° 0 mm 7 mps 663 mmHg 55%
    06:00 +20°C° 0 mm 7 mps 664 mmHg 50%
    07:00 +21°C° 0 mm 8 mps 664 mmHg 45%
    08:00 +23°C° 0 mm 8 mps 665 mmHg 41%
    09:00 +26°C° 0 mm 8 mps 665 mmHg 38%
    10:00 +27°C° 0 mm 7 mps 665 mmHg 35%
    11:00 +29°C° 0 mm 6 mps 666 mmHg 32%
    12:00 +29°C° 0 mm 6 mps 665 mmHg 30%
    13:00 +30°C° 0 mm 5 mps 664 mmHg 29%
    14:00 +32°C° 0 mm 5 mps 663 mmHg 27%
    15:00 +30°C° 0 mm 4 mps 663 mmHg 29%
    16:00 +29°C° 0 mm 4 mps 663 mmHg 30%
    17:00 +29°C° 0 mm 3 mps 662 mmHg 31%
    18:00 +27°C° 0 mm 2 mps 663 mmHg 37%
    19:00 +24°C° 0 mm 2 mps 663 mmHg 44%
    20:00 +22°C° 0 mm 1 mps 663 mmHg 51%
    21:00 +21°C° 0 mm 1 mps 663 mmHg 52%
    22:00 +21°C° 0 mm 1 mps 663 mmHg 54%
    23:00 +18°C° 0 mm 0 mps 664 mmHg 55%

    20 July, Friday

    Time Temperature Precipitation Wind Pressure Humidity
    00:00 +20°C° 0 mm 1 mps 663 mmHg 55%
    01:00 +19°C° 0 mm 2 mps 663 mmHg 55%
    02:00 +19°C° 0 mm 3 mps 662 mmHg 55%
    03:00 +19°C° 0 mm 4 mps 662 mmHg 54%
    04:00 +17°C° 0 mm 5 mps 663 mmHg 54%
    05:00 +17°C° 0 mm 6 mps 663 mmHg 54%
    06:00 +20°C° 0 mm 6 mps 664 mmHg 50%
    07:00 +22°C° 0 mm 7 mps 664 mmHg 47%
    08:00 +24°C° 0 mm 7 mps 665 mmHg 43%
    09:00 +26°C° 0 mm 7 mps 665 mmHg 40%
    10:00 +28°C° 0 mm 7 mps 665 mmHg 36%
    11:00 +29°C° 0 mm 7 mps 665 mmHg 33%
    12:00 +30°C° 0 mm 6 mps 665 mmHg 32%
    13:00 +30°C° 0 mm 5 mps 664 mmHg 30%
    14:00 +32°C° 0 mm 5 mps 663 mmHg 29%
    15:00 +30°C° 0 mm 4 mps 663 mmHg 31%
    16:00 +29°C° 0 mm 4 mps 662 mmHg 33%
    17:00 +28°C° 0 mm 3 mps 662 mmHg 35%
    18:00 +26°C° 0 mm 2 mps 662 mmHg 43%
    19:00 +24°C° 0 mm 2 mps 662 mmHg 51%
    20:00 +22°C° 0 mm 1 mps 663 mmHg 59%
    21:00 +21°C° 0 mm 1 mps 663 mmHg 60%
    22:00 +21°C° 0 mm 1 mps 663 mmHg 61%
    23:00 +20°C° 0 mm 1 mps 663 mmHg 61%

    21 July, Saturday

    Time Temperature Precipitation Wind Pressure Humidity
    00:00 +20°C° 0 mm 1 mps 663 mmHg 60%
    01:00 +19°C° 0 mm 2 mps 662 mmHg 59%
    02:00 +19°C° 0 mm 2 mps 662 mmHg 58%
    03:00 +19°C° 0 mm 3 mps 662 mmHg 57%
    04:00 +20°C° 0 mm 4 mps 663 mmHg 55%
    05:00 +20°C° 0 mm 4 mps 663 mmHg 54%
    06:00 +22°C° 0.1 mm 5 mps 664 mmHg 52%
    07:00 +23°C° 0.1 mm 5 mps 665 mmHg 50%
    08:00 +26°C° 0.1 mm 5 mps 665 mmHg 48%
    09:00 +27°C° 0 mm 5 mps 665 mmHg 46%
    10:00 +28°C° 0 mm 6 mps 665 mmHg 44%
    11:00 +29°C° 0 mm 6 mps 665 mmHg 42%
    12:00 +30°C° 0 mm 6 mps 665 mmHg 39%
    13:00 +30°C° 0 mm 5 mps 664 mmHg 37%
    14:00 +30°C° 0 mm 5 mps 663 mmHg 35%
    15:00 +30°C° 0 mm 4 mps 663 mmHg 36%
    16:00 +29°C° 0 mm 3 mps 663 mmHg 37%
    17:00 +28°C° 0 mm 3 mps 663 mmHg 37%
    18:00 +26°C° 0 mm 2 mps 663 mmHg 44%
    19:00 +24°C° 0 mm 2 mps 663 mmHg 51%
    20:00 +22°C° 0 mm 1 mps 664 mmHg 58%
    21:00 +22°C° 0 mm 1 mps 664 mmHg 59%
    22:00 +21°C° 0 mm 1 mps 664 mmHg 59%
    23:00 +21°C° 0 mm 1 mps 663 mmHg 59%

    22 July, Sunday

    Time Temperature Precipitation Wind Pressure Humidity
    00:00 +20°C° 0 mm 2 mps 663 mmHg 56%
    01:00 +21°C° 0 mm 2 mps 663 mmHg 54%
    02:00 +21°C° 0 mm 2 mps 663 mmHg 51%
    03:00 +21°C° 0 mm 3 mps 663 mmHg 51%
    04:00 +22°C° 0 mm 4 mps 663 mmHg 51%
    05:00 +22°C° 0 mm 5 mps 664 mmHg 51%
    06:00 +23°C° 0.2 mm 6 mps 664 mmHg 50%
    07:00 +24°C° 0.2 mm 6 mps 665 mmHg 50%
    08:00 +26°C° 0.2 mm 7 mps 666 mmHg 49%
    09:00 +27°C° 0 mm 6 mps 666 mmHg 46%
    10:00 +28°C° 0 mm 6 mps 666 mmHg 43%
    11:00 +29°C° 0 mm 6 mps 666 mmHg 40%
    12:00 +29°C° 0 mm 6 mps 665 mmHg 37%
    13:00 +30°C° 0 mm 5 mps 664 mmHg 35%
    14:00 +32°C° 0 mm 5 mps 663 mmHg 33%
    15:00 +30°C° 0 mm 4 mps 663 mmHg 33%
    16:00 +29°C° 0 mm 3 mps 663 mmHg 34%
    17:00 +29°C° 0 mm 2 mps 663 mmHg 35%
    18:00 +27°C° 0 mm 2 mps 663 mmHg 42%
    19:00 +24°C° 0 mm 1 mps 663 mmHg 49%
    20:00 +22°C° 0 mm 1 mps 663 mmHg 56%
    21:00 +22°C° 0 mm 1 mps 663 mmHg 57%
    22:00 +21°C° 0 mm 1 mps 663 mmHg 57%
    23:00 +21°C° 0 mm 1 mps 663 mmHg 58%
    Show more